TimeMDT,TemperatureF,Dew PointF,Humidity,Sea Level PressureIn,VisibilityMPH,Wind Direction,Wind SpeedMPH,Gust SpeedMPH,PrecipitationIn,Events,Conditions,WindDirDegrees,DateUTC
12:53 AM,24.1,14.0,65,30.27,10.0,Calm,Calm,-,N/A,,Clear,0,2013-03-24 06:53:00
1:53 AM,21.9,14.0,72,30.27,10.0,North,4.6,-,N/A,,Scattered Clouds,350,2013-03-24 07:53:00
2:53 AM,19.0,14.0,81,30.28,10.0,Calm,Calm,-,N/A,,Partly Cloudy,0,2013-03-24 08:53:00
3:53 AM,19.0,15.1,85,30.27,10.0,Calm,Calm,-,N/A,,Scattered Clouds,0,2013-03-24 09:53:00
4:53 AM,19.0,12.9,77,30.27,10.0,Calm,Calm,-,N/A,,Scattered Clouds,0,2013-03-24 10:53:00
5:53 AM,19.0,12.9,77,30.28,10.0,Calm,Calm,-,N/A,,Overcast,0,2013-03-24 11:53:00
6:53 AM,17.1,12.0,81,30.29,10.0,Calm,Calm,-,N/A,,Scattered Clouds,0,2013-03-24 12:53:00
7:53 AM,18.0,12.9,81,30.31,10.0,North,8.1,-,N/A,,Partly Cloudy,10,2013-03-24 13:53:00
8:53 AM,23.0,16.0,74,30.32,10.0,East,3.5,-,N/A,,Partly Cloudy,90,2013-03-24 14:53:00
9:53 AM,27.0,17.1,66,30.32,10.0,East,4.6,-,N/A,,Partly Cloudy,90,2013-03-24 15:53:00
10:53 AM,28.9,16.0,58,30.32,10.0,Calm,Calm,-,N/A,,Scattered Clouds,0,2013-03-24 16:53:00
11:53 AM,30.9,15.1,52,30.32,10.0,Variable,3.5,-,N/A,,Scattered Clouds,0,2013-03-24 17:53:00
12:53 PM,32.0,17.1,54,30.32,10.0,Variable,4.6,-,N/A,,Mostly Cloudy,0,2013-03-24 18:53:00
1:53 PM,34.0,12.9,42,30.31,10.0,NNW,6.9,-,N/A,,Mostly Cloudy,330,2013-03-24 19:53:00
2:53 PM,30.9,12.9,47,30.33,10.0,NNW,4.6,-,N/A,,Mostly Cloudy,330,2013-03-24 20:53:00
3:53 PM,34.0,12.9,42,30.30,10.0,North,9.2,-,N/A,,Mostly Cloudy,10,2013-03-24 21:53:00
4:53 PM,37.0,10.0,33,30.29,10.0,North,6.9,-,N/A,,Scattered Clouds,360,2013-03-24 22:53:00
5:53 PM,37.0,9.0,31,30.27,10.0,NE,5.8,-,N/A,,Partly Cloudy,50,2013-03-24 23:53:00
6:53 PM,35.1,6.1,30,30.29,10.0,NE,3.5,-,N/A,,Clear,50,2013-03-25 00:53:00
7:53 PM,28.9,10.0,45,30.30,10.0,NE,5.8,-,N/A,,Clear,40,2013-03-25 01:53:00
8:53 PM,27.0,12.9,56,30.30,10.0,East,5.8,-,N/A,,Clear,90,2013-03-25 02:53:00
9:53 PM,25.0,12.0,58,30.30,10.0,East,5.8,-,N/A,,Clear,90,2013-03-25 03:53:00
10:53 PM,24.1,12.9,62,30.29,10.0,East,4.6,-,N/A,,Clear,90,2013-03-25 04:53:00
11:53 PM,24.1,12.0,60,30.28,10.0,East,4.6,-,N/A,,Clear,100,2013-03-25 05:53:00